Location: Unspecified
(18.7830°N, 0.0000°E)
Time: 09:45:07
(UTC+00:00)

ISS - Visible Passes

Search period start: 25 April 2019 00:00
Search period end: 05 May 2019 00:00
Orbit: 408 x 410 km, 51.6° (Epoch: 25 April)

Date Brightness Start Highest point End Pass type
(mag) Time Alt. Az. Time Alt. Az. Time Alt. Az.
25 Apr -3.4 04:16:28 44° S 04:17:11 58° SE 04:20:25 10° NE visible
26 Apr -0.8 03:28:11 15° E 03:28:11 15° E 03:29:07 10° ENE visible
26 Apr -1.7 05:01:00 10° W 05:02:57 15° NW 05:04:53 10° N visible
27 Apr -2.5 04:12:33 29° NNW 04:12:33 29° NNW 04:15:02 10° NNE visible
28 Apr -0.6 03:24:02 14° NE 03:24:02 14° NE 03:24:31 10° NE visible
